QPF
0.00 0.00 0.01 0.01 0.00 0.00 0.00 0.00 0.01 0.01 0.01 0.01 0.01 0.01 0.01 0.01 0.01 0.00 0.00 0.00 0.00 0.01 0.01 0.03 0.05 0.06 0.09 0.08 0.07 0.06 0.09 0.12 0.17 0.21 0.23 0.19 0.13 0.07 0.04 0.03 0.03 0.04 0.05 0.04
0.00 0.00 0.00 0.00 0.00 0.01 0.01 0.01 0.01 0.01 0.01 0.01 0.01 0.01 0.01 0.01 0.01 0.00 0.00 0.00 0.00 0.01 0.01 0.03 0.04 0.05 0.06 0.07 0.06 0.06 0.06 0.09 0.12 0.15 0.17 0.19 0.17 0.09 0.05 0.04 0.03 0.04 0.04 0.03
0.00 0.00 0.00 0.00 0.01 0.01 0.01 0.01 0.01 0.01 0.01 0.01 0.01 0.01 0.00 0.00 0.00 0.00 0.00 0.00 0.00 0.01 0.01 0.02 0.04 0.04 0.04 0.06 0.06 0.05 0.06 0.08 0.10 0.10 0.12 0.14 0.15 0.12 0.08 0.05 0.04 0.04 0.05 0.03
0.00 0.00 0.00 0.00 0.00 0.01 0.01 0.01 0.01 0.02 0.02 0.02 0.01 0.01 0.00 0.00 0.00 0.00 0.00 0.00 0.00 0.01 0.01 0.02 0.02 0.04 0.04 0.06 0.07 0.07 0.08 0.08 0.06 0.07 0.09 0.10 0.10 0.10 0.08 0.05 0.04 0.04 0.05 0.04
0.00 0.00 0.00 0.00 0.00 0.00 0.00 0.00 0.01 0.01 0.02 0.01 0.00 0.01 0.00 0.00 0.00 0.00 0.00 0.00 0.00 0.00 0.01 0.01 0.02 0.05 0.06 0.07 0.09 0.10 0.08 0.07 0.07 0.08 0.08 0.09 0.09 0.08 0.06 0.04 0.04 0.04 0.05 0.04
0.00 0.00 0.00 0.00 0.00 0.00 0.00 0.00 0.00 0.01 0.01 0.01 0.00 0.00 0.00 0.00 0.00 0.00 0.00 0.00 0.00 0.00 0.01 0.01 0.02 0.05 0.07 0.06 0.07 0.10 0.11 0.10 0.10 0.12 0.10 0.08 0.08 0.09 0.08 0.05 0.03 0.03 0.05 0.05
0.00 0.00 0.00 0.00 0.00 0.00 0.00 0.01 0.01 0.01 0.01 0.00 0.00 0.00 0.00 0.00 0.00 0.00 0.00 0.00 0.00 0.00 0.01 0.02 0.02 0.03 0.07 0.07 0.06 0.08 0.12 0.14 0.13 0.13 0.11 0.10 0.08 0.09 0.09 0.07 0.05 0.03 0.05 0.06
0.00 0.00 0.00 0.00 0.00 0.00 0.00 0.00 0.01 0.00 0.00 0.00 0.00 0.00 0.00 0.00 0.00 0.00 0.00 0.00 0.00 0.00 0.00 0.01 0.02 0.03 0.05 0.07 0.06 0.06 0.10 0.16 0.15 0.13 0.11 0.11 0.08 0.08 0.08 0.08 0.07 0.04 0.05 0.06
0.00 0.00 0.00 0.00 0.00 0.00 0.00 0.00 0.00 0.01 0.01 0.00 0.00 0.00 0.00 0.00 0.00 0.00 0.00 0.00 0.00 0.00 0.00 0.00 0.01 0.03 0.04 0.05 0.05 0.05 0.05 0.10 0.14 0.16 0.16 0.14 0.08 0.06 0.06 0.07 0.07 0.06 0.06 0.07
0.01 0.00 0.00 0.00 0.00 0.00 0.00 0.00 0.00 0.01 0.01 0.00 0.00 0.00 0.00 0.01 0.00 0.00 0.00 0.00 0.00 0.00 0.00 0.00 0.01 0.01 0.02 0.04 0.06 0.07 0.05 0.06 0.09 0.11 0.14 0.14 0.09 0.07 0.06 0.06 0.05 0.04 0.05 0.07
0.01 0.01 0.00 0.00 0.00 0.01 0.00 0.01 0.01 0.01 0.01 0.01 0.00 0.00 0.00 0.01 0.00 0.00 0.00 0.00 0.00 0.00 0.00 0.00 0.01 0.01 0.02 0.04 0.04 0.05 0.06 0.06 0.06 0.08 0.10 0.08 0.06 0.05 0.05 0.05 0.04 0.03 0.04 0.06
0.01 0.01 0.01 0.00 0.00 0.01 0.00 0.01 0.01 0.01 0.01 0.01 0.00 0.00 0.00 0.01 0.00 0.00 0.00 0.00 0.00 0.00 0.00 0.01 0.01 0.01 0.02 0.02 0.03 0.04 0.04 0.05 0.05 0.06 0.08 0.07 0.06 0.07 0.06 0.03 0.03 0.03 0.03 0.05
0.01 0.02 0.02 0.01 0.01 0.01 0.01 0.01 0.01 0.01 0.02 0.01 0.01 0.01 0.01 0.01 0.01 0.01 0.00 0.00 0.01 0.00 0.01 0.01 0.01 0.02 0.02 0.02 0.02 0.04 0.04 0.03 0.04 0.05 0.06 0.06 0.06 0.08 0.10 0.06 0.04 0.03 0.03 0.03
0.02 0.02 0.02 0.01 0.01 0.01 0.01 0.01 0.02 0.03 0.03 0.02 0.01 0.01 0.01 0.00 0.01 0.01 0.01 0.00 0.01 0.00 0.01 0.01 0.01 0.01 0.01 0.01 0.02 0.03 0.03 0.03 0.03 0.03 0.05 0.05 0.06 0.07 0.09 0.10 0.06 0.04 0.03 0.03
0.03 0.03 0.01 0.00 0.00 0.00 0.00 0.00 0.00 0.01 0.01 0.02 0.01 0.01 0.01 0.00 0.01 0.01 0.01 0.00 0.01 0.00 0.01 0.01 0.00 0.01 0.01 0.01 0.01 0.02 0.03 0.02 0.02 0.02 0.02 0.03 0.05 0.06 0.07 0.08 0.08 0.07 0.05 0.04
0.02 0.03 0.01 0.00 0.00 0.00 0.00 0.00 0.00 0.00 0.00 0.00 0.01 0.01 0.00 0.00 0.00 0.00 0.01 0.00 0.01 0.01 0.00 0.00 0.00 0.00 0.01 0.00 0.01 0.02 0.03 0.02 0.02 0.02 0.01 0.01 0.02 0.03 0.05 0.05 0.06 0.06 0.06 0.05
0.02 0.03 0.03 0.01 0.00 0.01 0.01 0.00 0.00 0.00 0.00 0.00 0.00 0.00 0.00 0.00 0.00 0.00 0.00 0.00 0.00 0.00 0.00 0.00 0.00 0.00 0.00 0.00 0.00 0.00 0.02 0.02 0.02 0.02 0.01 0.01 0.01 0.01 0.02 0.03 0.03 0.04 0.05 0.05
0.03 0.03 0.04 0.03 0.02 0.02 0.01 0.00 0.00 0.00 0.00 0.00 0.00 0.00 0.00 0.00 0.00 0.00 0.00 0.00 0.00 0.00 0.00 0.00 0.00 0.00 0.00 0.00 0.00 0.00 0.01 0.02 0.01 0.01 0.01 0.01 0.01 0.01 0.01 0.01 0.01 0.01 0.02 0.03
0.02 0.04 0.06 0.05 0.03 0.01 0.00 0.00 0.00 0.00 0.01 0.00 0.00 0.00 0.00 0.00 0.00 0.00 0.00 0.00 0.00 0.00 0.00 0.00 0.00 0.00 0.00 0.00 0.00 0.00 0.01 0.02 0.01 0.01 0.00 0.01 0.01 0.00 0.00 0.00 0.00 0.00 0.00 0.01
0.02 0.04 0.07 0.06 0.04 0.02 0.01 0.00 0.00 0.01 0.01 0.01 0.00 0.00 0.00 0.00 0.00 0.00 0.00 0.00 0.00 0.00 0.00 0.00 0.00 0.00 0.00 0.00 0.00 0.00 0.00 0.01 0.02 0.01 0.01 0.00 0.00 0.00 0.00 0.00 0.00 0.00 0.00 0.00
0.04 0.06 0.07 0.06 0.04 0.03 0.01 0.00 0.00 0.02 0.02 0.00 0.01 0.01 0.01 0.01 0.01 0.01 0.01 0.00 0.00 0.00 0.00 0.00 0.00 0.00 0.00 0.00 0.00 0.00 0.00 0.00 0.01 0.02 0.01 0.01 0.00 0.00 0.00 0.00 0.00 0.00 0.00 0.00
0.04 0.04 0.04 0.05 0.06 0.05 0.01 0.01 0.01 0.02 0.01 0.00 0.01 0.01 0.02 0.02 0.01 0.01 0.02 0.02 0.01 0.01 0.00 0.00 0.00 0.00 0.00 0.00 0.00 0.00 0.00 0.01 0.02 0.03 0.02 0.02 0.01 0.00 0.00 0.00 0.00 0.00 0.00 0.00
0.03 0.03 0.03 0.03 0.04 0.03 0.02 0.01 0.01 0.01 0.01 0.01 0.01 0.01 0.02 0.02 0.02 0.02 0.02 0.02 0.02 0.02 0.01 0.01 0.01 0.01 0.00 0.00 0.00 0.00 0.01 0.01 0.01 0.02 0.03 0.03 0.03 0.02 0.00 0.00 0.00 0.00 0.00 0.00
0.03 0.03 0.03 0.03 0.04 0.03 0.02 0.01 0.00 0.00 0.00 0.00 0.01 0.01 0.01 0.01 0.02 0.02 0.02 0.02 0.02 0.03 0.02 0.02 0.02 0.02 0.02 0.01 0.01 0.01 0.00 0.00 0.00 0.01 0.01 0.03 0.04 0.03 0.02 0.01 0.00 0.00 0.00 0.00
0.03 0.03 0.03 0.03 0.04 0.03 0.03 0.03 0.02 0.01 0.00 0.00 0.00 0.01 0.01 0.01 0.02 0.01 0.01 0.01 0.01 0.01 0.01 0.02 0.02 0.02 0.02 0.01 0.01 0.01 0.01 0.00 0.00 0.00 0.00 0.01 0.01 0.02 0.02 0.01 0.01 0.00 0.00 0.00
0.05 0.04 0.03 0.04 0.03 0.02 0.03 0.03 0.03 0.02 0.02 0.02 0.01 0.02 0.02 0.01 0.02 0.01 0.01 0.01 0.01 0.01 0.01 0.01 0.01 0.01 0.01 0.01 0.00 0.00 0.00 0.00 0.00 0.00 0.00 0.00 0.00 0.00 0.01 0.01 0.00 0.00 0.00 0.00
MSLP
1020.58 1020.39 1020.22 1020.09 1019.99 1019.90 1019.79 1019.62 1019.35 1018.97 1018.46 1017.83 1017.09 1016.29 1015.46 1014.64 1013.87 1013.17 1012.56 1012.05 1011.63 1011.30 1011.05 1010.88 1010.77 1010.72 1010.73 1010.79 1010.90 1011.06 1011.26 1011.52 1011.81 1012.16 1012.55 1013.00 1013.48 1014.01 1014.56 1015.12 1015.66 1016.16 1016.61 1017.00
1020.52 1020.28 1020.07 1019.91 1019.79 1019.70 1019.60 1019.45 1019.22 1018.88 1018.42 1017.83 1017.15 1016.40 1015.62 1014.85 1014.12 1013.45 1012.86 1012.34 1011.90 1011.54 1011.24 1011.01 1010.84 1010.74 1010.70 1010.74 1010.84 1011.01 1011.23 1011.51 1011.84 1012.22 1012.64 1013.11 1013.62 1014.16 1014.72 1015.28 1015.82 1016.33 1016.78 1017.16
1020.48 1020.22 1019.99 1019.81 1019.68 1019.57 1019.47 1019.33 1019.12 1018.80 1018.37 1017.83 1017.20 1016.51 1015.79 1015.08 1014.40 1013.78 1013.22 1012.71 1012.26 1011.87 1011.52 1011.23 1011.00 1010.84 1010.76 1010.75 1010.82 1010.98 1011.20 1011.49 1011.84 1012.24 1012.68 1013.17 1013.69 1014.25 1014.83 1015.40 1015.96 1016.48 1016.93 1017.31
1020.46 1020.20 1019.98 1019.79 1019.65 1019.53 1019.42 1019.27 1019.04 1018.73 1018.31 1017.80 1017.20 1016.56 1015.91 1015.27 1014.66 1014.09 1013.57 1013.09 1012.65 1012.24 1011.86 1011.52 1011.24 1011.01 1010.87 1010.82 1010.86 1010.99 1011.20 1011.49 1011.84 1012.24 1012.70 1013.20 1013.73 1014.30 1014.88 1015.48 1016.05 1016.58 1017.04 1017.43
1020.40 1020.19 1019.99 1019.83 1019.69 1019.57 1019.44 1019.26 1019.01 1018.67 1018.24 1017.72 1017.15 1016.55 1015.94 1015.36 1014.83 1014.33 1013.87 1013.43 1013.01 1012.61 1012.21 1011.84 1011.51 1011.24 1011.05 1010.95 1010.95 1011.05 1011.25 1011.52 1011.87 1012.27 1012.72 1013.21 1013.75 1014.31 1014.90 1015.49 1016.07 1016.61 1017.08 1017.48
1020.25 1020.11 1019.98 1019.87 1019.76 1019.65 1019.50 1019.29 1019.00 1018.62 1018.15 1017.61 1017.03 1016.45 1015.89 1015.37 1014.90 1014.48 1014.08 1013.71 1013.33 1012.95 1012.56 1012.17 1011.81 1011.51 1011.28 1011.14 1011.11 1011.18 1011.35 1011.61 1011.94 1012.32 1012.76 1013.23 1013.75 1014.29 1014.87 1015.45 1016.02 1016.56 1017.04 1017.46
1019.99 1019.94 1019.89 1019.86 1019.81 1019.72 1019.58 1019.35 1019.01 1018.58 1018.06 1017.48 1016.89 1016.31 1015.77 1015.30 1014.89 1014.54 1014.23 1013.92 1013.59 1013.25 1012.88 1012.49 1012.12 1011.80 1011.54 1011.37 1011.31 1011.35 1011.50 1011.73 1012.04 1012.40 1012.81 1013.25 1013.74 1014.25 1014.80 1015.35 1015.91 1016.44 1016.93 1017.35
1019.59 1019.64 1019.70 1019.76 1019.79 1019.76 1019.64 1019.40 1019.03 1018.56 1017.99 1017.37 1016.75 1016.16 1015.64 1015.20 1014.85 1014.56 1014.32 1014.07 1013.81 1013.51 1013.16 1012.80 1012.43 1012.09 1011.81 1011.62 1011.53 1011.55 1011.67 1011.88 1012.16 1012.49 1012.86 1013.28 1013.72 1014.20 1014.70 1015.22 1015.75 1016.27 1016.75 1017.19
1019.07 1019.22 1019.39 1019.56 1019.68 1019.73 1019.65 1019.43 1019.06 1018.56 1017.96 1017.31 1016.66 1016.06 1015.54 1015.13 1014.81 1014.58 1014.39 1014.20 1013.99 1013.73 1013.42 1013.07 1012.70 1012.36 1012.07 1011.85 1011.74 1011.73 1011.83 1012.01 1012.26 1012.56 1012.91 1013.28 1013.69 1014.12 1014.59 1015.08 1015.58 1016.08 1016.55 1016.99
1018.49 1018.72 1018.99 1019.26 1019.49 1019.62 1019.61 1019.43 1019.08 1018.59 1017.98 1017.31 1016.65 1016.04 1015.52 1015.12 1014.83 1014.62 1014.47 1014.32 1014.15 1013.92 1013.63 1013.30 1012.94 1012.58 1012.28 1012.04 1011.91 1011.88 1011.95 1012.11 1012.33 1012.61 1012.93 1013.28 1013.65 1014.05 1014.48 1014.94 1015.41 1015.89 1016.36 1016.80
1017.92 1018.21 1018.56 1018.91 1019.22 1019.43 1019.50 1019.38 1019.08 1018.62 1018.03 1017.38 1016.72 1016.11 1015.60 1015.20 1014.92 1014.72 1014.58 1014.45 1014.29 1014.08 1013.80 1013.48 1013.11 1012.75 1012.43 1012.18 1012.02 1011.97 1012.02 1012.16 1012.36 1012.63 1012.93 1013.26 1013.61 1014.00 1014.40 1014.83 1015.28 1015.74 1016.20 1016.63
1017.43 1017.76 1018.14 1018.54 1018.91 1019.18 1019.31 1019.27 1019.03 1018.63 1018.09 1017.48 1016.85 1016.27 1015.76 1015.37 1015.08 1014.88 1014.73 1014.60 1014.43 1014.22 1013.94 1013.61 1013.24 1012.88 1012.54 1012.28 1012.10 1012.02 1012.05 1012.17 1012.37 1012.63 1012.92 1013.25 1013.60 1013.97 1014.36 1014.78 1015.21 1015.65 1016.09 1016.51
1017.08 1017.39 1017.77 1018.18 1018.56 1018.87 1019.05 1019.06 1018.90 1018.58 1018.12 1017.59 1017.02 1016.47 1015.99 1015.61 1015.31 1015.09 1014.92 1014.76 1014.58 1014.36 1014.07 1013.73 1013.36 1012.98 1012.64 1012.36 1012.17 1012.08 1012.09 1012.20 1012.39 1012.64 1012.94 1013.26 1013.61 1013.98 1014.37 1014.77 1015.19 1015.61 1016.03 1016.42
1016.85 1017.12 1017.45 1017.82 1018.17 1018.48 1018.68 1018.76 1018.68 1018.45 1018.10 1017.66 1017.18 1016.70 1016.26 1015.89 1015.60 1015.36 1015.16 1014.97 1014.76 1014.51 1014.21 1013.87 1013.49 1013.11 1012.77 1012.48 1012.28 1012.17 1012.17 1012.27 1012.45 1012.70 1012.99 1013.32 1013.67 1014.04 1014.43 1014.82 1015.22 1015.61 1016.00 1016.37
1016.70 1016.91 1017.16 1017.45 1017.74 1018.01 1018.22 1018.34 1018.34 1018.22 1017.99 1017.67 1017.31 1016.92 1016.55 1016.22 1015.93 1015.68 1015.45 1015.23 1014.99 1014.72 1014.41 1014.05 1013.68 1013.31 1012.97 1012.68 1012.47 1012.35 1012.34 1012.42 1012.59 1012.82 1013.11 1013.43 1013.78 1014.15 1014.52 1014.89 1015.27 1015.64 1016.00 1016.33
1016.56 1016.69 1016.85 1017.04 1017.25 1017.48 1017.68 1017.83 1017.91 1017.91 1017.81 1017.64 1017.41 1017.15 1016.86 1016.58 1016.31 1016.05 1015.81 1015.56 1015.29 1015.00 1014.68 1014.33 1013.97 1013.61 1013.27 1012.99 1012.77 1012.64 1012.60 1012.66 1012.80 1013.01 1013.28 1013.59 1013.92 1014.27 1014.63 1014.98 1015.33 1015.67 1015.99 1016.29
1016.34 1016.40 1016.47 1016.57 1016.71 1016.88 1017.07 1017.27 1017.43 1017.56 1017.61 1017.60 1017.52 1017.39 1017.20 1016.98 1016.75 1016.50 1016.24 1015.97 1015.68 1015.38 1015.05 1014.71 1014.36 1014.01 1013.68 1013.40 1013.18 1013.03 1012.96 1012.98 1013.08 1013.25 1013.48 1013.76 1014.07 1014.40 1014.73 1015.06 1015.38 1015.69 1015.98 1016.25
1015.99 1016.01 1016.02 1016.05 1016.13 1016.27 1016.48 1016.72 1016.99 1017.24 1017.45 1017.60 1017.68 1017.67 1017.59 1017.45 1017.25 1017.01 1016.74 1016.45 1016.15 1015.83 1015.51 1015.17 1014.83 1014.49 1014.17 1013.88 1013.64 1013.46 1013.35 1013.32 1013.37 1013.49 1013.68 1013.92 1014.20 1014.50 1014.80 1015.11 1015.41 1015.69 1015.95 1016.20
1015.50 1015.53 1015.52 1015.53 1015.59 1015.74 1015.98 1016.29 1016.66 1017.04 1017.40 1017.70 1017.92 1018.04 1018.05 1017.97 1017.80 1017.57 1017.29 1016.99 1016.66 1016.33 1016.00 1015.66 1015.32 1014.99 1014.67 1014.36 1014.10 1013.88 1013.72 1013.63 1013.62 1013.68 1013.82 1014.01 1014.25 1014.53 1014.82 1015.11 1015.39 1015.66 1015.91 1016.15
1014.94 1015.01 1015.04 1015.07 1015.17 1015.36 1015.65 1016.05 1016.52 1017.02 1017.50 1017.93 1018.27 1018.49 1018.57 1018.53 1018.38 1018.14 1017.85 1017.51 1017.16 1016.80 1016.45 1016.10 1015.75 1015.41 1015.08 1014.76 1014.46 1014.19 1013.98 1013.83 1013.76 1013.76 1013.85 1014.00 1014.22 1014.48 1014.76 1015.05 1015.33 1015.60 1015.86 1016.10
1014.40 1014.56 1014.67 1014.78 1014.95 1015.21 1015.58 1016.06 1016.62 1017.21 1017.80 1018.31 1018.72 1019.00 1019.12 1019.09 1018.93 1018.66 1018.32 1017.95 1017.55 1017.16 1016.77 1016.40 1016.04 1015.68 1015.32 1014.98 1014.64 1014.33 1014.07 1013.86 1013.73 1013.69 1013.74 1013.87 1014.07 1014.32 1014.61 1014.92 1015.23 1015.52 1015.80 1016.06
1014.01 1014.29 1014.51 1014.73 1014.99 1015.34 1015.79 1016.34 1016.96 1017.62 1018.25 1018.80 1019.24 1019.52 1019.63 1019.57 1019.37 1019.05 1018.66 1018.22 1017.76 1017.32 1016.89 1016.48 1016.09 1015.70 1015.32 1014.94 1014.57 1014.23 1013.92 1013.68 1013.52 1013.44 1013.47 1013.59 1013.79 1014.06 1014.38 1014.72 1015.06 1015.39 1015.71 1016.00
1013.87 1014.28 1014.63 1014.96 1015.32 1015.76 1016.27 1016.86 1017.51 1018.17 1018.80 1019.34 1019.74 1019.98 1020.04 1019.92 1019.64 1019.25 1018.77 1018.26 1017.73 1017.22 1016.74 1016.28 1015.85 1015.43 1015.02 1014.62 1014.23 1013.86 1013.54 1013.28 1013.10 1013.02 1013.05 1013.18 1013.40 1013.71 1014.06 1014.45 1014.84 1015.22 1015.58 1015.91
1014.04 1014.57 1015.04 1015.47 1015.92 1016.40 1016.95 1017.55 1018.18 1018.80 1019.37 1019.84 1020.16 1020.31 1020.28 1020.06 1019.69 1019.20 1018.63 1018.03 1017.42 1016.84 1016.29 1015.78 1015.30 1014.85 1014.42 1014.00 1013.60 1013.23 1012.91 1012.66 1012.50 1012.44 1012.49 1012.66 1012.92 1013.27 1013.68 1014.12 1014.56 1015.00 1015.40 1015.79
1014.53 1015.16 1015.71 1016.21 1016.70 1017.21 1017.74 1018.30 1018.86 1019.40 1019.87 1020.22 1020.43 1020.46 1020.31 1019.98 1019.50 1018.91 1018.24 1017.54 1016.84 1016.18 1015.56 1014.99 1014.47 1013.98 1013.53 1013.11 1012.72 1012.38 1012.09 1011.88 1011.76 1011.75 1011.86 1012.08 1012.40 1012.80 1013.26 1013.76 1014.25 1014.74 1015.20 1015.62
1015.29 1015.97 1016.56 1017.08 1017.58 1018.05 1018.53 1019.01 1019.47 1019.88 1020.22 1020.44 1020.51 1020.41 1020.14 1019.69 1019.10 1018.40 1017.63 1016.84 1016.05 1015.30 1014.61 1013.97 1013.40 1012.89 1012.43 1012.02 1011.66 1011.36 1011.13 1010.99 1010.95 1011.01 1011.20 1011.49 1011.88 1012.34 1012.86 1013.40 1013.95 1014.48 1014.98 1015.44
Thickness
5586 5587 5588 5591 5590 5591 5590 5588 5590 5593 5590 5587 5593 5600 5605 5606 5605 5607 5608 5609 5609 5609 5609 5609 5608 5607 5607 5607 5608 5609 5610 5610 5609 5609 5608 5609 5609 5609 5611 5613 5614 5617 5618 5619
5581 5582 5587 5585 5581 5578 5579 5580 5585 5586 5582 5581 5588 5595 5604 5604 5604 5605 5606 5607 5607 5606 5606 5605 5604 5603 5603 5602 5603 5603 5604 5604 5603 5604 5603 5603 5602 5602 5604 5604 5606 5608 5610 5611
5583 5584 5580 5576 5575 5573 5575 5578 5580 5578 5578 5577 5578 5596 5604 5605 5602 5601 5602 5604 5605 5604 5603 5603 5601 5600 5600 5598 5598 5599 5598 5597 5596 5595 5595 5594 5594 5594 5595 5596 5598 5600 5601 5603
5575 5577 5572 5572 5573 5572 5575 5575 5572 5569 5570 5578 5574 5586 5606 5603 5600 5599 5600 5601 5602 5601 5600 5599 5598 5597 5596 5595 5594 5593 5592 5591 5589 5588 5588 5590 5591 5590 5590 5590 5591 5592 5592 5595
5572 5569 5567 5569 5573 5569 5572 5568 5565 5564 5565 5568 5572 5573 5600 5599 5598 5600 5599 5598 5598 5598 5597 5596 5594 5593 5592 5591 5589 5587 5586 5584 5583 5582 5582 5583 5584 5583 5582 5582 5582 5583 5584 5586
5567 5563 5563 5567 5566 5564 5562 5559 5557 5557 5560 5566 5578 5575 5595 5599 5599 5599 5597 5595 5594 5593 5592 5591 5590 5589 5587 5585 5583 5582 5580 5579 5577 5575 5575 5576 5576 5575 5574 5574 5575 5576 5576 5577
5559 5559 5558 5558 5558 5555 5557 5559 5560 5560 5562 5575 5571 5571 5589 5595 5592 5590 5589 5590 5589 5587 5586 5586 5585 5583 5581 5578 5577 5576 5575 5573 5571 5571 5569 5569 5568 5568 5568 5568 5568 5568 5569 5570
5555 5560 5556 5554 5557 5557 5556 5560 5562 5563 5571 5578 5564 5572 5589 5585 5580 5579 5580 5581 5581 5581 5581 5579 5579 5577 5575 5572 5571 5571 5569 5567 5565 5565 5564 5562 5561 5560 5560 5561 5561 5562 5562 5562
5550 5554 5548 5546 5547 5550 5548 5551 5556 5554 5552 5556 5572 5576 5577 5575 5572 5572 5573 5573 5574 5575 5574 5573 5572 5571 5569 5567 5566 5565 5563 5561 5559 5558 5556 5554 5554 5552 5552 5553 5553 5553 5553 5554
5537 5538 5540 5535 5535 5536 5541 5545 5541 5541 5546 5557 5572 5574 5580 5573 5570 5568 5566 5566 5567 5566 5566 5565 5564 5563 5562 5560 5558 5557 5556 5554 5553 5551 5549 5548 5547 5546 5545 5544 5544 5545 5545 5546
5521 5524 5527 5527 5531 5537 5530 5530 5536 5541 5546 5552 5561 5575 5573 5568 5563 5559 5558 5558 5558 5557 5558 5558 5557 5556 5554 5552 5550 5549 5548 5546 5544 5543 5544 5543 5541 5539 5538 5538 5538 5538 5538 5537
5508 5511 5518 5523 5522 5522 5526 5530 5530 5531 5535 5539 5550 5563 5558 5554 5550 5548 5548 5548 5548 5548 5548 5548 5547 5546 5545 5544 5542 5541 5540 5538 5537 5535 5535 5534 5533 5532 5531 5530 5530 5530 5529 5529
5495 5496 5503 5512 5509 5503 5509 5514 5517 5521 5524 5529 5535 5552 5544 5540 5539 5538 5538 5539 5539 5538 5538 5538 5538 5537 5536 5535 5533 5532 5531 5530 5528 5527 5526 5525 5524 5523 5523 5522 5522 5521 5520 5520
5485 5488 5497 5509 5517 5509 5504 5506 5506 5505 5508 5520 5531 5541 5538 5534 5531 5530 5529 5528 5529 5529 5528 5528 5528 5527 5526 5526 5525 5523 5521 5519 5518 5518 5517 5516 5516 5514 5513 5512 5511 5511 5511 5510
5470 5475 5485 5492 5494 5496 5499 5502 5501 5500 5510 5513 5527 5528 5531 5524 5521 5519 5518 5517 5517 5518 5518 5518 5517 5517 5517 5516 5515 5514 5512 5510 5508 5508 5507 5506 5505 5504 5502 5501 5501 5500 5500 5500
5459 5462 5466 5471 5478 5481 5485 5493 5495 5499 5504 5507 5511 5515 5516 5511 5509 5507 5507 5506 5506 5507 5507 5506 5507 5506 5506 5505 5505 5503 5502 5500 5498 5497 5496 5495 5494 5493 5492 5491 5490 5489 5489 5489
5447 5448 5452 5465 5464 5463 5476 5491 5492 5494 5497 5499 5501 5505 5499 5496 5496 5495 5495 5495 5496 5496 5496 5496 5496 5496 5495 5495 5493 5493 5492 5489 5487 5486 5485 5483 5482 5482 5481 5479 5478 5478 5477 5477
5436 5439 5442 5450 5447 5453 5486 5481 5484 5484 5485 5484 5486 5487 5486 5484 5481 5481 5482 5483 5484 5483 5483 5484 5484 5484 5484 5483 5482 5480 5479 5477 5476 5475 5473 5472 5472 5471 5469 5468 5467 5466 5466 5465
5430 5433 5435 5439 5448 5465 5468 5463 5465 5468 5470 5470 5470 5470 5469 5466 5468 5472 5468 5468 5468 5469 5470 5471 5471 5471 5471 5471 5470 5469 5468 5466 5465 5464 5463 5462 5461 5460 5459 5458 5457 5456 5454 5454
5418 5421 5425 5430 5438 5451 5462 5453 5453 5456 5457 5456 5455 5455 5455 5455 5463 5465 5457 5454 5454 5454 5455 5456 5457 5458 5458 5458 5457 5457 5457 5455 5454 5453 5451 5450 5449 5448 5447 5446 5445 5444 5443 5443
5407 5409 5413 5422 5431 5447 5439 5436 5440 5446 5453 5443 5443 5443 5442 5445 5449 5445 5441 5441 5441 5441 5442 5442 5444 5444 5445 5444 5444 5444 5444 5442 5441 5440 5438 5437 5436 5435 5434 5433 5432 5431 5430 5430
5407 5409 5409 5415 5421 5429 5422 5424 5430 5434 5430 5429 5429 5428 5427 5427 5427 5427 5426 5427 5427 5427 5428 5429 5430 5430 5430 5429 5430 5430 5430 5428 5427 5426 5425 5425 5424 5423 5422 5421 5420 5419 5418 5417
5398 5405 5412 5411 5414 5412 5411 5414 5415 5416 5416 5416 5415 5414 5414 5413 5414 5414 5414 5414 5414 5415 5415 5415 5415 5416 5416 5415 5416 5416 5415 5414 5414 5413 5413 5412 5411 5410 5409 5408 5408 5407 5406 5405
5385 5385 5391 5392 5396 5396 5396 5399 5399 5401 5402 5402 5401 5401 5401 5401 5401 5401 5402 5402 5401 5401 5401 5401 5402 5402 5402 5402 5402 5401 5400 5400 5401 5401 5400 5399 5398 5398 5397 5396 5395 5394 5395 5394
5377 5374 5378 5381 5383 5383 5384 5384 5384 5385 5386 5387 5387 5387 5387 5387 5387 5387 5388 5389 5388 5388 5388 5388 5389 5389 5388 5388 5388 5388 5387 5387 5388 5388 5387 5386 5386 5385 5384 5383 5382 5382 5383 5382
5362 5364 5369 5374 5373 5373 5372 5371 5371 5372 5372 5372 5372 5372 5371 5371 5372 5373 5374 5374 5374 5374 5375 5375 5376 5376 5376 5376 5376 5375 5375 5375 5375 5376 5375 5374 5373 5372 5372 5371 5370 5369 5368 5368